Year,Month,Day,Hour,Minute,Value (Times are PST for temperature in C)
2010,08,29,00,00,14.90
2010,08,29,00,01,14.90
2010,08,29,00,02,14.90
2010,08,29,00,03,14.90
2010,08,29,00,04,14.90
2010,08,29,00,05,14.80
2010,08,29,00,06,14.80
2010,08,29,00,07,14.80
2010,08,29,00,08,14.80
2010,08,29,00,09,14.80
2010,08,29,00,10,14.80
2010,08,29,00,11,14.90
2010,08,29,00,12,14.90
2010,08,29,00,13,14.90
2010,08,29,00,14,15.00
2010,08,29,00,15,15.00
2010,08,29,00,16,15.00
2010,08,29,00,17,15.10
2010,08,29,00,18,15.10
2010,08,29,00,19,15.10
2010,08,29,00,20,15.10
2010,08,29,00,21,15.10
2010,08,29,00,22,15.10
2010,08,29,00,23,15.10
2010,08,29,00,24,15.10
2010,08,29,00,25,15.10
2010,08,29,00,26,15.10
2010,08,29,00,27,15.10
2010,08,29,00,28,15.00
2010,08,29,00,29,15.00
2010,08,29,00,30,15.00
2010,08,29,00,31,15.00
2010,08,29,00,32,15.00
2010,08,29,00,33,15.00
2010,08,29,00,34,15.00
2010,08,29,00,35,15.00
2010,08,29,00,36,15.00
2010,08,29,00,37,15.00
2010,08,29,00,38,15.00
2010,08,29,00,39,15.00
2010,08,29,00,40,15.10
2010,08,29,00,41,15.10
2010,08,29,00,42,15.10
2010,08,29,00,43,15.00
2010,08,29,00,44,15.00
2010,08,29,00,45,15.00
2010,08,29,00,46,14.90
2010,08,29,00,47,14.90
2010,08,29,00,48,14.90
2010,08,29,00,49,14.90
2010,08,29,00,50,14.80
2010,08,29,00,51,14.80
2010,08,29,00,52,14.80
2010,08,29,00,53,14.80
2010,08,29,00,54,14.70
2010,08,29,00,55,14.70
2010,08,29,00,56,14.70
2010,08,29,00,57,14.70
2010,08,29,00,58,14.60
2010,08,29,00,59,14.60
2010,08,29,01,00,14.60
2010,08,29,01,01,14.60
2010,08,29,01,02,14.60
2010,08,29,01,03,14.60
2010,08,29,01,04,14.60
2010,08,29,01,05,14.50
2010,08,29,01,06,14.50
2010,08,29,01,07,14.50
2010,08,29,01,08,14.50
2010,08,29,01,09,14.50
2010,08,29,01,10,14.50
2010,08,29,01,11,14.50
2010,08,29,01,12,14.40
2010,08,29,01,13,14.50
2010,08,29,01,14,14.50
2010,08,29,01,15,14.50
2010,08,29,01,16,14.40
2010,08,29,01,17,14.40
2010,08,29,01,18,14.40
2010,08,29,01,19,14.30
2010,08,29,01,20,14.30
2010,08,29,01,21,14.30
2010,08,29,01,22,14.30
2010,08,29,01,23,14.30
2010,08,29,01,24,14.30
2010,08,29,01,25,14.30
2010,08,29,01,26,14.30
2010,08,29,01,27,14.30
2010,08,29,01,28,14.30
2010,08,29,01,29,14.30
2010,08,29,01,30,14.20
2010,08,29,01,31,14.20
2010,08,29,01,32,14.20
2010,08,29,01,33,14.20
2010,08,29,01,34,14.10
2010,08,29,01,35,14.10
2010,08,29,01,36,14.10
2010,08,29,01,37,14.00
2010,08,29,01,38,14.00
2010,08,29,01,39,14.00
2010,08,29,01,40,13.90
2010,08,29,01,41,13.90
2010,08,29,01,42,13.90
2010,08,29,01,43,13.90
2010,08,29,01,44,13.90
2010,08,29,01,45,13.90
2010,08,29,01,46,13.90
2010,08,29,01,47,13.90
2010,08,29,01,48,13.90
2010,08,29,01,49,13.90
2010,08,29,01,50,13.80
2010,08,29,01,51,13.80
2010,08,29,01,52,13.80
2010,08,29,01,53,13.80
2010,08,29,01,54,13.80
2010,08,29,01,55,13.80
2010,08,29,01,56,13.80
2010,08,29,01,57,13.80
2010,08,29,01,58,13.80
2010,08,29,01,59,13.80
2010,08,29,02,00,13.80
2010,08,29,02,01,13.80
2010,08,29,02,02,13.80
2010,08,29,02,03,13.80
2010,08,29,02,04,13.80
2010,08,29,02,05,13.90
2010,08,29,02,06,13.90
2010,08,29,02,07,13.90
2010,08,29,02,08,13.90
2010,08,29,02,09,14.00
2010,08,29,02,10,14.00
2010,08,29,02,11,14.10
2010,08,29,02,12,14.10
2010,08,29,02,13,14.10
2010,08,29,02,14,14.20
2010,08,29,02,15,14.20
2010,08,29,02,16,14.20
2010,08,29,02,17,14.20
2010,08,29,02,18,14.20
2010,08,29,02,19,14.10
2010,08,29,02,20,14.10
2010,08,29,02,21,14.10
2010,08,29,02,22,14.00
2010,08,29,02,23,14.00
2010,08,29,02,24,13.90
2010,08,29,02,25,13.90
2010,08,29,02,26,13.80
2010,08,29,02,27,13.80
2010,08,29,02,28,13.70
2010,08,29,02,29,13.70
2010,08,29,02,30,13.70
2010,08,29,02,31,13.70
2010,08,29,02,32,13.60
2010,08,29,02,33,13.60
2010,08,29,02,34,13.60
2010,08,29,02,35,13.60
2010,08,29,02,36,13.60
2010,08,29,02,37,13.60
2010,08,29,02,38,13.50
2010,08,29,02,39,13.50
2010,08,29,02,40,13.50
2010,08,29,02,41,13.50
2010,08,29,02,42,13.40
2010,08,29,02,43,13.40
2010,08,29,02,44,13.40
2010,08,29,02,45,13.40
2010,08,29,02,46,13.40
2010,08,29,02,47,13.40
2010,08,29,02,48,13.40
2010,08,29,02,49,13.40
2010,08,29,02,50,13.50
2010,08,29,02,51,13.50
2010,08,29,02,52,13.40
2010,08,29,02,53,13.50
2010,08,29,02,54,13.50
2010,08,29,02,55,13.50
2010,08,29,02,56,13.50
2010,08,29,02,57,13.60
2010,08,29,02,58,13.50
2010,08,29,02,59,13.60
2010,08,29,03,00,13.60
2010,08,29,03,01,13.60
2010,08,29,03,02,13.60
2010,08,29,03,03,13.70
2010,08,29,03,04,13.70
2010,08,29,03,05,13.70
2010,08,29,03,06,13.70
2010,08,29,03,07,13.70
2010,08,29,03,08,13.70
2010,08,29,03,09,13.70
2010,08,29,03,10,13.70
2010,08,29,03,11,13.70
2010,08,29,03,12,13.70
2010,08,29,03,13,13.80
2010,08,29,03,14,13.80
2010,08,29,03,15,13.80
2010,08,29,03,16,13.80
2010,08,29,03,17,13.80
2010,08,29,03,18,13.80
2010,08,29,03,19,13.90
2010,08,29,03,20,13.90
2010,08,29,03,21,13.90
2010,08,29,03,22,13.90
2010,08,29,03,23,13.80
2010,08,29,03,24,13.80
2010,08,29,03,25,13.80
2010,08,29,03,26,13.80
2010,08,29,03,27,13.80
2010,08,29,03,28,13.80
2010,08,29,03,29,13.70
2010,08,29,03,30,13.70
2010,08,29,03,31,13.70
2010,08,29,03,32,13.70
2010,08,29,03,33,13.70
2010,08,29,03,34,13.70
2010,08,29,03,35,13.70
2010,08,29,03,36,13.60
2010,08,29,03,37,13.60
2010,08,29,03,38,13.60
2010,08,29,03,39,13.60
2010,08,29,03,40,13.50
2010,08,29,03,41,13.50
2010,08,29,03,42,13.50
2010,08,29,03,43,13.40
2010,08,29,03,44,13.40
2010,08,29,03,45,13.40
2010,08,29,03,46,13.40
2010,08,29,03,47,13.40
2010,08,29,03,48,13.30
2010,08,29,03,49,13.30
2010,08,29,03,50,13.30
2010,08,29,03,51,13.30
2010,08,29,03,52,13.20
2010,08,29,03,53,13.20
2010,08,29,03,54,13.20
2010,08,29,03,55,13.20
2010,08,29,03,56,13.20
2010,08,29,03,57,13.10
2010,08,29,03,58,13.10
2010,08,29,03,59,13.10
2010,08,29,04,00,13.10
2010,08,29,04,01,13.00
2010,08,29,04,02,13.00
2010,08,29,04,03,13.00
2010,08,29,04,04,13.00
2010,08,29,04,05,13.00
2010,08,29,04,06,13.00
2010,08,29,04,07,12.90
2010,08,29,04,08,12.90
2010,08,29,04,09,12.90
2010,08,29,04,10,12.80
2010,08,29,04,11,12.80
2010,08,29,04,12,12.80
2010,08,29,04,13,12.80
2010,08,29,04,14,12.80
2010,08,29,04,15,12.80
2010,08,29,04,16,12.80
2010,08,29,04,17,12.80
2010,08,29,04,18,12.70
2010,08,29,04,19,12.70
2010,08,29,04,20,12.70
2010,08,29,04,21,12.70
2010,08,29,04,22,12.70
2010,08,29,04,23,12.70
2010,08,29,04,24,12.70
2010,08,29,04,25,12.70
2010,08,29,04,26,12.80
2010,08,29,04,27,12.80
2010,08,29,04,28,12.80
2010,08,29,04,29,12.90
2010,08,29,04,30,12.90
2010,08,29,04,31,12.90
2010,08,29,04,32,12.90
2010,08,29,04,33,12.90
2010,08,29,04,34,12.90
2010,08,29,04,35,13.00
2010,08,29,04,36,13.00
2010,08,29,04,37,13.00
2010,08,29,04,38,13.00
2010,08,29,04,39,13.10
2010,08,29,04,40,13.10
2010,08,29,04,41,13.10
2010,08,29,04,42,13.10
2010,08,29,04,43,13.20
2010,08,29,04,44,13.20
2010,08,29,04,45,13.30
2010,08,29,04,46,13.30
2010,08,29,04,47,13.30
2010,08,29,04,48,13.40
2010,08,29,04,49,13.40
2010,08,29,04,50,13.50
2010,08,29,04,51,13.50
2010,08,29,04,52,13.50
2010,08,29,04,53,13.50
2010,08,29,04,54,13.50
2010,08,29,04,55,13.60
2010,08,29,04,56,13.50
2010,08,29,04,57,13.50
2010,08,29,04,58,13.50
2010,08,29,04,59,13.50
2010,08,29,05,00,13.50
2010,08,29,05,01,13.50
2010,08,29,05,02,13.40
2010,08,29,05,03,13.40
2010,08,29,05,04,13.40
2010,08,29,05,05,13.40
2010,08,29,05,06,13.40
2010,08,29,05,07,13.40
2010,08,29,05,08,13.40
2010,08,29,05,09,13.40
2010,08,29,05,10,13.40
2010,08,29,05,11,13.40
2010,08,29,05,12,13.40
2010,08,29,05,13,13.40
2010,08,29,05,14,13.40
2010,08,29,05,15,13.30
2010,08,29,05,16,13.30
2010,08,29,05,17,13.30
2010,08,29,05,18,13.30
2010,08,29,05,19,13.20
2010,08,29,05,20,13.20
2010,08,29,05,21,13.10
2010,08,29,05,22,13.10
2010,08,29,05,23,13.10
2010,08,29,05,24,13.10
2010,08,29,05,25,13.00
2010,08,29,05,26,13.00
2010,08,29,05,27,12.90
2010,08,29,05,28,12.90
2010,08,29,05,29,12.80
2010,08,29,05,30,12.80
2010,08,29,05,31,12.80
2010,08,29,05,32,12.70
2010,08,29,05,33,12.70
2010,08,29,05,34,12.70
2010,08,29,05,35,12.60
2010,08,29,05,36,12.60
2010,08,29,05,37,12.60
2010,08,29,05,38,12.50
2010,08,29,05,39,12.40
2010,08,29,05,40,12.30
2010,08,29,05,41,12.20
2010,08,29,05,42,12.10
2010,08,29,05,43,12.00
2010,08,29,05,44,11.90
2010,08,29,05,45,11.80
2010,08,29,05,46,11.70
2010,08,29,05,47,11.60
2010,08,29,05,48,11.60
2010,08,29,05,49,11.50
2010,08,29,05,50,11.40
2010,08,29,05,51,11.40
2010,08,29,05,52,11.30
2010,08,29,05,53,11.30
2010,08,29,05,54,11.20
2010,08,29,05,55,11.20
2010,08,29,05,56,11.20
2010,08,29,05,57,11.10
2010,08,29,05,58,11.10
2010,08,29,05,59,11.10
2010,08,29,06,00,11.10
2010,08,29,06,01,11.00
2010,08,29,06,02,11.00
2010,08,29,06,03,11.00
2010,08,29,06,04,11.00
2010,08,29,06,05,11.00
2010,08,29,06,06,11.00
2010,08,29,06,07,10.90
2010,08,29,06,08,10.90
2010,08,29,06,09,10.90
2010,08,29,06,10,10.80
2010,08,29,06,11,10.80
2010,08,29,06,12,10.80
2010,08,29,06,13,10.80
2010,08,29,06,14,10.80
2010,08,29,06,15,10.80
2010,08,29,06,16,10.70
2010,08,29,06,17,10.70
2010,08,29,06,18,10.70
2010,08,29,06,19,10.70
2010,08,29,06,20,10.70
2010,08,29,06,21,10.70
2010,08,29,06,22,10.60
2010,08,29,06,23,10.60
2010,08,29,06,24,10.60
2010,08,29,06,25,10.50
2010,08,29,06,26,10.50
2010,08,29,06,27,10.40
2010,08,29,06,28,10.40
2010,08,29,06,29,10.30
2010,08,29,06,30,10.30
2010,08,29,06,31,10.20
2010,08,29,06,32,10.20
2010,08,29,06,33,10.20
2010,08,29,06,34,10.10
2010,08,29,06,35,10.10
2010,08,29,06,36,10.00
2010,08,29,06,37,9.90
2010,08,29,06,38,9.90
2010,08,29,06,39,9.80
2010,08,29,06,40,9.80
2010,08,29,06,41,9.80
2010,08,29,06,42,9.70
2010,08,29,06,43,9.70
2010,08,29,06,44,9.70
2010,08,29,06,45,9.60
2010,08,29,06,46,9.60
2010,08,29,06,47,9.60
2010,08,29,06,48,9.60
2010,08,29,06,49,9.50
2010,08,29,06,50,9.50
2010,08,29,06,51,9.50
2010,08,29,06,52,9.50
2010,08,29,06,53,9.40
2010,08,29,06,54,9.40
2010,08,29,06,55,9.40
2010,08,29,06,56,9.40
2010,08,29,06,57,9.40
2010,08,29,06,58,9.40
2010,08,29,06,59,9.40
2010,08,29,07,00,9.40
2010,08,29,07,01,9.40
2010,08,29,07,02,9.40
2010,08,29,07,03,9.40
2010,08,29,07,04,9.40
2010,08,29,07,05,9.50
2010,08,29,07,06,9.50
2010,08,29,07,07,9.50
2010,08,29,07,08,9.50
2010,08,29,07,09,9.50
2010,08,29,07,10,9.50
2010,08,29,07,11,9.50
2010,08,29,07,12,9.60
2010,08,29,07,13,9.60
2010,08,29,07,14,9.60
2010,08,29,07,15,9.60
2010,08,29,07,16,9.70
2010,08,29,07,17,9.70
2010,08,29,07,18,9.70
2010,08,29,07,19,9.70
2010,08,29,07,20,9.80
2010,08,29,07,21,9.80
2010,08,29,07,22,9.80
2010,08,29,07,23,9.90
2010,08,29,07,24,10.00
2010,08,29,07,25,10.00
2010,08,29,07,26,10.10
2010,08,29,07,27,10.10
2010,08,29,07,28,10.20
2010,08,29,07,29,10.20
2010,08,29,07,30,10.30
2010,08,29,07,31,10.30
2010,08,29,07,32,10.40
2010,08,29,07,33,10.40
2010,08,29,07,34,10.50
2010,08,29,07,35,10.60
2010,08,29,07,36,10.60
2010,08,29,07,37,10.70
2010,08,29,07,38,10.70
2010,08,29,07,39,10.80
2010,08,29,07,40,10.80
2010,08,29,07,41,10.90
2010,08,29,07,42,10.90
2010,08,29,07,43,11.00
2010,08,29,07,44,11.10
2010,08,29,07,45,11.20
2010,08,29,07,46,11.30
2010,08,29,07,47,11.40
2010,08,29,07,48,11.60
2010,08,29,07,49,11.70
2010,08,29,07,50,11.80
2010,08,29,07,51,11.90
2010,08,29,07,52,12.00
2010,08,29,07,53,12.00
2010,08,29,07,54,12.10
2010,08,29,07,55,12.20
2010,08,29,07,56,12.30
2010,08,29,07,57,12.30
2010,08,29,07,58,12.40
2010,08,29,07,59,12.50
2010,08,29,08,00,12.60
2010,08,29,08,01,12.70
2010,08,29,08,02,12.80
2010,08,29,08,03,12.90
2010,08,29,08,04,13.00
2010,08,29,08,05,13.10
2010,08,29,08,06,13.20
2010,08,29,08,07,13.30
2010,08,29,08,08,13.40
2010,08,29,08,09,13.40
2010,08,29,08,10,13.50
2010,08,29,08,11,13.60
2010,08,29,08,12,13.60
2010,08,29,08,13,13.60
2010,08,29,08,14,13.70
2010,08,29,08,15,13.70
2010,08,29,08,16,13.70
2010,08,29,08,17,13.80
2010,08,29,08,18,13.80
2010,08,29,08,19,13.90
2010,08,29,08,20,13.90
2010,08,29,08,21,13.90
2010,08,29,08,22,13.90
2010,08,29,08,23,13.90
2010,08,29,08,24,13.90
2010,08,29,08,25,14.00
2010,08,29,08,26,14.00
2010,08,29,08,27,14.00
2010,08,29,08,28,14.10
2010,08,29,08,29,14.10
2010,08,29,08,30,14.10
2010,08,29,08,31,14.10
2010,08,29,08,32,14.10
2010,08,29,08,33,14.10
2010,08,29,08,34,14.20
2010,08,29,08,35,14.20
2010,08,29,08,36,14.20
2010,08,29,08,37,14.30
2010,08,29,08,38,14.30
2010,08,29,08,39,14.40
2010,08,29,08,40,14.40
2010,08,29,08,41,14.40
2010,08,29,08,42,14.50
2010,08,29,08,43,14.50
2010,08,29,08,44,14.50
2010,08,29,08,45,14.50
2010,08,29,08,46,14.50
2010,08,29,08,47,14.50
2010,08,29,08,48,14.50
2010,08,29,08,49,14.50
2010,08,29,08,50,14.50
2010,08,29,08,51,14.50
2010,08,29,08,52,14.50
2010,08,29,08,53,14.50
2010,08,29,08,54,14.60
2010,08,29,08,55,14.60
2010,08,29,08,56,14.60
2010,08,29,08,57,14.70
2010,08,29,08,58,14.70
2010,08,29,08,59,14.70
2010,08,29,09,00,14.70
2010,08,29,09,01,14.70
2010,08,29,09,02,14.70
2010,08,29,09,03,14.70
2010,08,29,09,04,14.70
2010,08,29,09,05,14.60
2010,08,29,09,06,14.60
2010,08,29,09,07,14.70
2010,08,29,09,08,14.70
2010,08,29,09,09,14.70
2010,08,29,09,10,14.70
2010,08,29,09,11,14.70
2010,08,29,09,12,14.70
2010,08,29,09,13,14.70
2010,08,29,09,14,14.70
2010,08,29,09,15,14.70
2010,08,29,09,16,14.70
2010,08,29,09,17,14.70
2010,08,29,09,18,14.70
2010,08,29,09,19,14.70
2010,08,29,09,20,14.70
2010,08,29,09,21,14.70
2010,08,29,09,22,14.70
2010,08,29,09,23,14.70
2010,08,29,09,24,14.70
2010,08,29,09,25,14.70
2010,08,29,09,26,14.70
2010,08,29,09,27,14.80
2010,08,29,09,28,14.80
2010,08,29,09,29,14.90
2010,08,29,09,30,14.90
2010,08,29,09,31,14.90
2010,08,29,09,32,14.90
2010,08,29,09,33,14.90
2010,08,29,09,34,14.90
2010,08,29,09,35,14.90
2010,08,29,09,36,14.90
2010,08,29,09,37,15.00
2010,08,29,09,38,15.00
2010,08,29,09,39,15.00
2010,08,29,09,40,15.10
2010,08,29,09,41,15.10
2010,08,29,09,42,15.10
2010,08,29,09,43,15.10
2010,08,29,09,44,15.20
2010,08,29,09,45,15.30
2010,08,29,09,46,15.30
2010,08,29,09,47,15.40
2010,08,29,09,48,15.50
2010,08,29,09,49,15.50
2010,08,29,09,50,15.60
2010,08,29,09,51,15.60
2010,08,29,09,52,15.60
2010,08,29,09,53,15.60
2010,08,29,09,54,15.60
2010,08,29,09,55,15.70
2010,08,29,09,56,15.70
2010,08,29,09,57,15.70
2010,08,29,09,58,15.80
2010,08,29,09,59,15.80
2010,08,29,10,00,15.80
2010,08,29,10,01,15.80
2010,08,29,10,02,15.80
2010,08,29,10,03,15.80
2010,08,29,10,04,15.70
2010,08,29,10,05,15.80
2010,08,29,10,06,15.80
2010,08,29,10,07,15.80
2010,08,29,10,08,15.90
2010,08,29,10,09,15.90
2010,08,29,10,10,15.90
2010,08,29,10,11,15.90
2010,08,29,10,12,15.90
2010,08,29,10,13,15.90
2010,08,29,10,14,15.80
2010,08,29,10,15,15.80
2010,08,29,10,16,15.80
2010,08,29,10,17,15.80
2010,08,29,10,18,15.80
2010,08,29,10,19,15.80
2010,08,29,10,20,15.80
2010,08,29,10,21,15.90
2010,08,29,10,22,15.90
2010,08,29,10,23,15.90
2010,08,29,10,24,15.90
2010,08,29,10,25,15.90
2010,08,29,10,26,15.90
2010,08,29,10,27,15.90
2010,08,29,10,28,15.90
2010,08,29,10,29,15.90
2010,08,29,10,30,15.90
2010,08,29,10,31,15.90
2010,08,29,10,32,15.90
2010,08,29,10,33,15.90
2010,08,29,10,34,15.90
2010,08,29,10,35,16.00
2010,08,29,10,36,16.00
2010,08,29,10,37,16.10
2010,08,29,10,38,16.20
2010,08,29,10,39,16.20
2010,08,29,10,40,16.20
2010,08,29,10,41,16.20
2010,08,29,10,42,16.20
2010,08,29,10,43,16.20
2010,08,29,10,44,16.10
2010,08,29,10,45,16.10
2010,08,29,10,46,16.10
2010,08,29,10,47,16.10
2010,08,29,10,48,16.10
2010,08,29,10,49,16.10
2010,08,29,10,50,16.10
2010,08,29,10,51,16.00
2010,08,29,10,52,16.00
2010,08,29,10,53,16.00
2010,08,29,10,54,16.00
2010,08,29,10,55,16.00
2010,08,29,10,56,16.00
2010,08,29,10,57,16.10
2010,08,29,10,58,16.10
2010,08,29,10,59,16.10
2010,08,29,11,00,16.10
2010,08,29,11,01,16.10
2010,08,29,11,02,16.20
2010,08,29,11,03,16.20
2010,08,29,11,04,16.20
2010,08,29,11,05,16.20
2010,08,29,11,06,16.20
2010,08,29,11,07,16.10
2010,08,29,11,08,16.10
2010,08,29,11,09,16.10
2010,08,29,11,10,16.10
2010,08,29,11,11,16.10
2010,08,29,11,12,16.10
2010,08,29,11,13,16.10
2010,08,29,11,14,16.10
2010,08,29,11,15,16.10
2010,08,29,11,16,16.20
2010,08,29,11,17,16.20
2010,08,29,11,18,16.20
2010,08,29,11,19,16.20
2010,08,29,11,20,16.20
2010,08,29,11,21,16.20
2010,08,29,11,22,16.20
2010,08,29,11,23,16.20
2010,08,29,11,24,16.20
2010,08,29,11,25,16.20
2010,08,29,11,26,16.20
2010,08,29,11,27,16.20
2010,08,29,11,28,16.20
2010,08,29,11,29,16.20
2010,08,29,11,30,16.20
2010,08,29,11,31,16.20
2010,08,29,11,32,16.20
2010,08,29,11,33,16.20
2010,08,29,11,34,16.20
2010,08,29,11,35,16.20
2010,08,29,11,36,16.30
2010,08,29,11,37,16.30
2010,08,29,11,38,16.20
2010,08,29,11,39,16.20
2010,08,29,11,40,16.20
2010,08,29,11,41,16.20
2010,08,29,11,42,16.20
2010,08,29,11,43,16.20
2010,08,29,11,44,16.30
2010,08,29,11,45,16.30
2010,08,29,11,46,16.30
2010,08,29,11,47,16.30
2010,08,29,11,48,16.30
2010,08,29,11,49,16.30
2010,08,29,11,50,16.40
2010,08,29,11,51,16.40
2010,08,29,11,52,16.50
2010,08,29,11,53,16.50
2010,08,29,11,54,16.60
2010,08,29,11,55,16.70
2010,08,29,11,56,16.70
2010,08,29,11,57,16.70
2010,08,29,11,58,16.70
2010,08,29,11,59,16.70
2010,08,29,12,00,16.70
2010,08,29,12,01,16.70
2010,08,29,12,02,16.80
2010,08,29,12,03,16.90
2010,08,29,12,04,16.90
2010,08,29,12,05,17.00
2010,08,29,12,06,17.10
2010,08,29,12,07,17.20
2010,08,29,12,08,17.30
2010,08,29,12,09,17.30
2010,08,29,12,10,17.30
2010,08,29,12,11,17.30
2010,08,29,12,12,17.30
2010,08,29,12,13,17.30
2010,08,29,12,14,17.30
2010,08,29,12,15,17.20
2010,08,29,12,16,17.20
2010,08,29,12,17,17.20
2010,08,29,12,18,17.20
2010,08,29,12,19,17.20
2010,08,29,12,20,17.20
2010,08,29,12,21,17.20
2010,08,29,12,22,17.20
2010,08,29,12,23,17.10
2010,08,29,12,24,17.10
2010,08,29,12,25,17.10
2010,08,29,12,26,17.10
2010,08,29,12,27,17.10
2010,08,29,12,28,17.10
2010,08,29,12,29,17.10
2010,08,29,12,30,17.10
2010,08,29,12,31,17.10
2010,08,29,12,32,17.00
2010,08,29,12,33,16.90
2010,08,29,12,34,16.90
2010,08,29,12,35,16.90
2010,08,29,12,36,16.90
2010,08,29,12,37,16.90
2010,08,29,12,38,16.90
2010,08,29,12,39,16.90
2010,08,29,12,40,16.90
2010,08,29,12,41,16.80
2010,08,29,12,42,16.80
2010,08,29,12,43,16.80
2010,08,29,12,44,16.80
2010,08,29,12,45,16.70
2010,08,29,12,46,16.80
2010,08,29,12,47,16.80
2010,08,29,12,48,16.80
2010,08,29,12,49,16.80
2010,08,29,12,50,16.80
2010,08,29,12,51,16.80
2010,08,29,12,52,16.90
2010,08,29,12,53,16.90
2010,08,29,12,54,16.90
2010,08,29,12,55,16.90
2010,08,29,12,56,16.90
2010,08,29,12,57,16.90
2010,08,29,12,58,16.90
2010,08,29,12,59,16.90
2010,08,29,13,00,17.00
2010,08,29,13,01,17.10
2010,08,29,13,02,17.10
2010,08,29,13,03,17.10
2010,08,29,13,04,17.20
2010,08,29,13,05,17.30
2010,08,29,13,06,17.30
2010,08,29,13,07,17.40
2010,08,29,13,08,17.40
2010,08,29,13,09,17.40
2010,08,29,13,10,17.30
2010,08,29,13,11,17.30
2010,08,29,13,12,17.20
2010,08,29,13,13,17.20
2010,08,29,13,14,17.10
2010,08,29,13,15,17.00
2010,08,29,13,16,17.00
2010,08,29,13,17,16.90
2010,08,29,13,18,16.90
2010,08,29,13,19,16.90
2010,08,29,13,20,16.90
2010,08,29,13,21,16.90
2010,08,29,13,22,16.90
2010,08,29,13,23,17.00
2010,08,29,13,24,17.00
2010,08,29,13,25,17.00
2010,08,29,13,26,17.00
2010,08,29,13,27,17.00
2010,08,29,13,28,17.00
2010,08,29,13,29,17.00
2010,08,29,13,30,17.00
2010,08,29,13,31,17.10
2010,08,29,13,32,17.10
2010,08,29,13,33,17.30
2010,08,29,13,34,17.30
2010,08,29,13,35,17.40
2010,08,29,13,36,17.40
2010,08,29,13,37,17.40
2010,08,29,13,38,17.40
2010,08,29,13,39,17.40
2010,08,29,13,40,17.40
2010,08,29,13,41,17.30
2010,08,29,13,42,17.30
2010,08,29,13,43,17.20
2010,08,29,13,44,17.20
2010,08,29,13,45,17.20
2010,08,29,13,46,17.20
2010,08,29,13,47,17.20
2010,08,29,13,48,17.30
2010,08,29,13,49,17.20
2010,08,29,13,50,17.20
2010,08,29,13,51,17.20
2010,08,29,13,52,17.30
2010,08,29,13,53,17.30
2010,08,29,13,54,17.40
2010,08,29,13,55,17.50
2010,08,29,13,56,17.60
2010,08,29,13,57,17.60
2010,08,29,13,58,17.60
2010,08,29,13,59,17.50
2010,08,29,14,00,17.50
2010,08,29,14,01,17.40
2010,08,29,14,02,17.50
2010,08,29,14,03,17.50
2010,08,29,14,04,17.50
2010,08,29,14,05,17.40
2010,08,29,14,06,17.40
2010,08,29,14,07,17.40
2010,08,29,14,08,17.40
2010,08,29,14,09,17.40
2010,08,29,14,10,17.40
2010,08,29,14,11,17.40
2010,08,29,14,12,17.40
2010,08,29,14,13,17.40
2010,08,29,14,14,17.40
2010,08,29,14,15,17.40
2010,08,29,14,16,17.40
2010,08,29,14,17,17.40
2010,08,29,14,18,17.30
2010,08,29,14,19,17.30
2010,08,29,14,20,17.20
2010,08,29,14,21,17.20
2010,08,29,14,22,17.20
2010,08,29,14,23,17.10
2010,08,29,14,24,17.00
2010,08,29,14,25,17.00
2010,08,29,14,26,16.90
2010,08,29,14,27,16.90
2010,08,29,14,28,16.90
2010,08,29,14,29,16.80
2010,08,29,14,30,16.80
2010,08,29,14,31,16.80
2010,08,29,14,32,16.80
2010,08,29,14,33,16.80
2010,08,29,14,34,16.80
2010,08,29,14,35,16.80
2010,08,29,14,36,16.80
2010,08,29,14,37,16.80
2010,08,29,14,38,16.80
2010,08,29,14,39,16.80
2010,08,29,14,40,16.80
2010,08,29,14,41,16.80
2010,08,29,14,42,16.80
2010,08,29,14,43,16.80
2010,08,29,14,44,16.80
2010,08,29,14,45,16.80
2010,08,29,14,46,16.80
2010,08,29,14,47,16.80
2010,08,29,14,48,16.80
2010,08,29,14,49,16.80
2010,08,29,14,50,16.80
2010,08,29,14,51,16.80
2010,08,29,14,52,16.80
2010,08,29,14,53,16.90
2010,08,29,14,54,16.90
2010,08,29,14,55,17.00
2010,08,29,14,56,17.00
2010,08,29,14,57,17.20
2010,08,29,14,58,17.30
2010,08,29,14,59,17.30
2010,08,29,15,00,17.40
2010,08,29,15,01,17.40
2010,08,29,15,02,17.40
2010,08,29,15,03,17.40
2010,08,29,15,04,17.40
2010,08,29,15,05,17.40
2010,08,29,15,06,17.40
2010,08,29,15,07,17.40
2010,08,29,15,08,17.40
2010,08,29,15,09,17.30
2010,08,29,15,10,17.30
2010,08,29,15,11,17.30
2010,08,29,15,12,17.30
2010,08,29,15,13,17.30
2010,08,29,15,14,17.30
2010,08,29,15,15,17.20
2010,08,29,15,16,17.20
2010,08,29,15,17,17.10
2010,08,29,15,18,17.10
2010,08,29,15,19,17.00
2010,08,29,15,20,17.00
2010,08,29,15,21,17.00
2010,08,29,15,22,16.90
2010,08,29,15,23,17.00
2010,08,29,15,24,16.90
2010,08,29,15,25,16.90
2010,08,29,15,26,16.90
2010,08,29,15,27,16.90
2010,08,29,15,28,16.90
2010,08,29,15,29,16.90
2010,08,29,15,30,16.90
2010,08,29,15,31,16.80
2010,08,29,15,32,16.80
2010,08,29,15,33,16.70
2010,08,29,15,34,16.60
2010,08,29,15,35,16.60
2010,08,29,15,36,16.60
2010,08,29,15,37,16.60
2010,08,29,15,38,16.50
2010,08,29,15,39,16.50
2010,08,29,15,40,16.50
2010,08,29,15,41,16.50
2010,08,29,15,42,16.50
2010,08,29,15,43,16.50
2010,08,29,15,44,16.60
2010,08,29,15,45,16.60
2010,08,29,15,46,16.60
2010,08,29,15,47,16.70
2010,08,29,15,48,16.70
2010,08,29,15,49,16.80
2010,08,29,15,50,16.80
2010,08,29,15,51,16.80
2010,08,29,15,52,16.90
2010,08,29,15,53,16.90
2010,08,29,15,54,17.00
2010,08,29,15,55,17.00
2010,08,29,15,56,17.10
2010,08,29,15,57,17.10
2010,08,29,15,58,17.20
2010,08,29,15,59,17.30
2010,08,29,16,00,17.30
2010,08,29,16,01,17.40
2010,08,29,16,02,17.50
2010,08,29,16,03,17.60
2010,08,29,16,04,17.60
2010,08,29,16,05,17.60
2010,08,29,16,06,17.60
2010,08,29,16,07,17.50
2010,08,29,16,08,17.40
2010,08,29,16,09,17.40
2010,08,29,16,10,17.30
2010,08,29,16,11,17.20
2010,08,29,16,12,17.20
2010,08,29,16,13,17.20
2010,08,29,16,14,17.10
2010,08,29,16,15,17.10
2010,08,29,16,16,17.10
2010,08,29,16,17,17.10
2010,08,29,16,18,17.00
2010,08,29,16,19,17.00
2010,08,29,16,20,17.00
2010,08,29,16,21,16.90
2010,08,29,16,22,16.90
2010,08,29,16,23,16.90
2010,08,29,16,24,16.80
2010,08,29,16,25,16.80
2010,08,29,16,26,16.80
2010,08,29,16,27,16.80
2010,08,29,16,28,16.80
2010,08,29,16,29,16.80
2010,08,29,16,30,16.80
2010,08,29,16,31,16.70
2010,08,29,16,32,16.70
2010,08,29,16,33,16.70
2010,08,29,16,34,16.70
2010,08,29,16,35,16.70
2010,08,29,16,36,16.70
2010,08,29,16,37,16.70
2010,08,29,16,38,16.70
2010,08,29,16,39,16.70
2010,08,29,16,40,16.70
2010,08,29,16,41,16.70
2010,08,29,16,42,16.60
2010,08,29,16,43,16.60
2010,08,29,16,44,16.60
2010,08,29,16,45,16.50
2010,08,29,16,46,16.50
2010,08,29,16,47,16.40
2010,08,29,16,48,16.40
2010,08,29,16,49,16.40
2010,08,29,16,50,16.30
2010,08,29,16,51,16.30
2010,08,29,16,52,16.30
2010,08,29,16,53,16.30
2010,08,29,16,54,16.30
2010,08,29,16,55,16.30
2010,08,29,16,56,16.30
2010,08,29,16,57,16.30
2010,08,29,16,58,16.30
2010,08,29,16,59,16.30
2010,08,29,17,00,16.30
2010,08,29,17,01,16.30
2010,08,29,17,02,16.30
2010,08,29,17,03,16.30
2010,08,29,17,04,16.30
2010,08,29,17,05,16.30
2010,08,29,17,06,16.30
2010,08,29,17,07,16.30
2010,08,29,17,08,16.30
2010,08,29,17,09,16.30
2010,08,29,17,10,16.40
2010,08,29,17,11,16.40
2010,08,29,17,12,16.40
2010,08,29,17,13,16.50
2010,08,29,17,14,16.50
2010,08,29,17,15,16.60
2010,08,29,17,16,16.60
2010,08,29,17,17,16.60
2010,08,29,17,18,16.60
2010,08,29,17,19,16.70
2010,08,29,17,20,16.70
2010,08,29,17,21,16.70